Вернуться в каталог

SL-6 R/B(2)

АктивенHEO
NORAD 24296·ROCKET BODY·🇷🇺 Russia

Запущен Aug 29, 1996 с Plesetsk Cosmodrome

Loading…

Ближайшие Пролёты (ближайшие 24 часа)

TLE

СвежийSource: Space-Track

Эпоха: Sep 10, 2026, 03:08 UTC

1 24296U 96050F   26253.13109683  .00000022  00000-0 -53241-3 0  9995
2 24296  62.6482 170.0306 5574380 264.0250  33.3013  4.15061742455187

Отслеживайте SL-6 R/B(2) в реальном времени с AllMySat

Download on the App Store